Starlink 3852

operational
NORAD ID: 52345 Int'l Des: 2022-045 Owner: SPXS Country: US Constellation: starlink
LEOCIRCULAR

Über Starlink 3852

Beschreibung wird geladen...

Live-Position

3D-Globus wird geladen...

Nächste Überflüge

Höhenverlauf

Altitude vs Time

uPlot chart will show altitude changes over time

Zweizeiliger Elementsatz

1 52345U 22045Q 26035.29018880 .00001432 00000-0 10804-3 0 9990
2 52345 53.2183 349.2215 0001655 87.4325 272.6857 15.08841469210720
Epoch: 4. Feb. 2026 • Age: 19 hours

Aktueller Status

Höhe 559.2 km
Geschwindigkeit 7.58 km/s
Subsatellitenpunkt -52.79°S, 84.61°E
Startdatum 29. Apr. 2022
Alter 3.7 years
Typ internet

Technische Details

Klassifizierung Payload
Masse 297.00 kg
Trockenmasse 275.00 kg
Gesamtmasse 297.00 kg
Länge 0.20 m
Durchmesser 2.80 m
Spannweite 9.00 m
Form Box + pan
Hersteller SPXS
Bus-Typ Starlink
Phasenstatus In Orbit
Besitzer/Staat SPXS/US

Große Konstellationen

Loading constellations...